Regional Weather Roundup
Issued by NWS

Home | Current Version | Previous Version | Graphics & Text | Print | Product List | Glossary On
Versions: 1 2 3 4 5 6 7 8 9 10 11 12 13 14 15 16 17 18 19 20 21 22 23 24 25 26 27 28 29 30 31 32 33 34 35 36 37 38 39 40 41 42 43 44 45 46 47 48 49 50
000
ASUS43 KOAX 202102
RWRNE

WEATHER ROUNDUP FOR NEBRASKA
NATIONAL WEATHER SERVICE OMAHA NE
400 PM CDT SUN APR 20 2014

NOTES: SATELLITE DATA IS BEING USED TO AUGMENT CLOUD COVER ABOVE
       12000 FEET.
       "FAIR" INDICATES FEW OR NO CLOUDS BELOW 12,000 FEET WITH NO
       SIGNIFICANT WEATHER AND/OR OBSTRUCTIONS TO VISIBILITY.

  * THESE STATIONS DO NOT REPORT WEATHER SUCH AS RAIN...SNOW OR FOG.

NEZ001>004-019>022-054>056-202200-
NEBRASKA PANHANDLE

CITY           SKY/WX    TMP DP  RH WIND       PRES   REMARKS
SCOTTSBLUFF    MOSUNNY   79  31  17 MISG      29.95F
ALLIANCE       SUNNY     77  30  17 W10G16    29.93F
CHADRON        MOSUNNY   78  34  20 NW15G25   29.91F
KIMBALL        MOSUNNY   73  24  15 NW9G23    29.99S
SIDNEY         SUNNY     75  35  23 VRB5      29.96F
$$

NEZ057>060-069>072-079>082-202200-
SOUTHWEST NEBRASKA

CITY           SKY/WX    TMP DP  RH WIND       PRES   REMARKS
NORTH PLATTE   PTSUNNY   73  50  44 VRB7      29.93F
IMPERIAL       CLOUDY    72  47  40 VRB5      29.95F
LEXINGTON      PTSUNNY   76  54  46 S13       29.93F
MCCOOK         PTSUNNY   78  50  37 S13       29.92F
OGALLALA       MOSUNNY   75  41  28 S3        29.94F
$$

NEZ005>010-023>029-035>040-094-202200-
NORTH CENTRAL NEBRASKA

CITY           SKY/WX    TMP DP  RH WIND       PRES   REMARKS
VALENTINE      SUNNY     80  40  23 S15       29.89F
AINSWORTH      SUNNY     80  40  24 S9G18     29.91F
BROKEN BOW     PTSUNNY   72  50  45 S10       29.93F
O`NEILL        MOSUNNY   79  40  24 SW6       29.91F
ORD            PTSUNNY   77  50  38 VRB7      29.91F
THEDFORD       SUNNY     80  38  22 SW3       29.92F
$$

NEZ041-046>049-061>064-073>077-083>087-202200-
SOUTH CENTRAL NEBRASKA

CITY           SKY/WX    TMP DP  RH WIND       PRES   REMARKS
GRAND ISLAND   CLOUDY    75  55  49 W6        29.94F
AURORA         CLOUDY    79  50  36 S14G22    29.93F
HASTINGS       CLOUDY    77  48  35 S14       29.93F
HEBRON         CLOUDY    75  47  37 SW17G29   29.96F
HOLDREGE       CLOUDY    75  51  42 S9        29.94F
KEARNEY *      PTSUNNY   75  54  46 S15G21    29.95F
YORK           CLOUDY    73  55  53 S3        29.95F
$$

NEZ011>018-030>034-042>045-202200-
NORTHEAST NEBRASKA

CITY           SKY/WX    TMP DP  RH WIND       PRES   REMARKS
NORFOLK        PTSUNNY   82  50  32 S10       29.88F
ALBION         PTSUNNY   80  47  30 SW16      29.91F
BLAIR          PTSUNNY   84  49  29 S17G25    29.91F
COLUMBUS *     CLOUDY    75  52  43 S18       29.93S
FREMONT        CLOUDY    83  48  30 S10G17    29.91F
TEKAMAH        PTSUNNY   85  48  27 S20       29.89F
$$

NEZ050>053-065>068-078-088>093-202200-
SOUTHEAST NEBRASKA

CITY           SKY/WX    TMP DP  RH WIND       PRES   REMARKS
LINCOLN        CLOUDY    78  52  40 SW29      29.94F THUNDER
OMAHA EPPLEY   CLOUDY    83  49  30 VRB5      29.91F
BEATRICE       CLOUDY    80  52  37 SW16G22   29.94F
FALLS CITY     PTSUNNY   81  54  39 S15G28    29.95F
NEBRASKA CITY  PTSUNNY   81  50  33 SW9       29.93F
PLATTSMOUTH    PTSUNNY   85  46  24 S17G23    29.93F
$$

NEZ044-045-051>053-067-202200-
OMAHA AREA

CITY           SKY/WX    TMP DP  RH WIND       PRES   REMARKS
OMAHA EPPLEY   CLOUDY    83  49  30 VRB5      29.91F
BLAIR          PTSUNNY   84  49  29 S17G25    29.91F
FREMONT        CLOUDY    83  48  30 S10G17    29.91F
OFFUTT AFB     PTSUNNY   85  52  32 S9G22     29.91F
PLATTSMOUTH    PTSUNNY   85  46  24 S17G23    29.93F
WAHOO          FAIR      83  44  25 SW17      29.92F
$$



USA.gov is the U.S. government's official web portal to all federal, state and local government web resources and services.